Wetterdaten: Freitag, 19.04.2013
Datum Zeit Temperatur Luftfeuchte Luftdruck Regen Wind Richtung Richtung Taupunkt Windchill Windben
19.04.2013 00:00 13,7 C 78 % 1021,9 hPa 0,0 l/m 2,9 km/h (1 Bft) S 180 9,9 C 13,8 C 8,9 km/h (2 Bft)
19.04.2013 00:05 13,9 C 79 % 1022,0 hPa 0,0 l/m 3,5 km/h (1 Bft) S-SW 202 10,3 C 13,9 C 3,7 km/h (1 Bft)
19.04.2013 00:10 13,7 C 78 % 1022,0 hPa 0,0 l/m 3,7 km/h (1 Bft) S 180 9,9 C 13,9 C 5,6 km/h (1 Bft)
19.04.2013 00:15 13,6 C 78 % 1022,0 hPa 0,0 l/m 2,7 km/h (1 Bft) S 180 9,8 C 13,9 C 5,1 km/h (1 Bft)
19.04.2013 00:20 13,6 C 78 % 1022,0 hPa 0,0 l/m 3,2 km/h (1 Bft) S 180 9,8 C 13,9 C 2,4 km/h (1 Bft)
19.04.2013 00:25 13,5 C 78 % 1022,4 hPa 0,0 l/m 2,7 km/h (1 Bft) S 180 9,7 C 13,8 C 3,2 km/h (1 Bft)
19.04.2013 00:30 13,5 C 78 % 1022,4 hPa 0,0 l/m 1,9 km/h (1 Bft) S-SW 202 9,7 C 13,7 C 2,4 km/h (1 Bft)
19.04.2013 00:35 13,4 C 78 % 1022,4 hPa 0,0 l/m 1,1 km/h (1 Bft) W-SW 247 9,6 C 13,7 C 2,3 km/h (1 Bft)
19.04.2013 00:40 13,3 C 77 % 1022,4 hPa 0,0 l/m 0,6 km/h (0 Bft) S 180 9,4 C 13,6 C 0,0 km/h (0 Bft)
19.04.2013 00:45 13,3 C 78 % 1022,1 hPa 0,0 l/m 0,6 km/h (0 Bft) W 270 9,5 C 13,5 C 0,0 km/h (0 Bft)
19.04.2013 00:50 13,2 C 78 % 1022,1 hPa 0,0 l/m 0,3 km/h (0 Bft) S-SW 202 9,4 C 13,5 C 0,0 km/h (0 Bft)
19.04.2013 00:55 13,1 C 77 % 1022,1 hPa 0,0 l/m 0,0 km/h (0 Bft) S 180 9,2 C 13,4 C 0,0 km/h (0 Bft)
19.04.2013 01:00 13,2 C 78 % 1022,1 hPa 0,0 l/m 0,3 km/h (0 Bft) S-SW 202 9,4 C 13,3 C 1,8 km/h (1 Bft)
19.04.2013 01:05 13,1 C 77 % 1022,2 hPa 0,0 l/m 0,3 km/h (0 Bft) S 180 9,2 C 13,2 C 0,0 km/h (0 Bft)
19.04.2013 01:10 13,0 C 77 % 1022,2 hPa 0,0 l/m 0,6 km/h (0 Bft) S 180 9,1 C 13,2 C 0,0 km/h (0 Bft)
19.04.2013 01:15 12,9 C 78 % 1022,2 hPa 0,0 l/m 0,6 km/h (0 Bft) SO 135 9,2 C 13,2 C 2,4 km/h (1 Bft)
19.04.2013 01:20 12,8 C 78 % 1022,2 hPa 0,0 l/m 0,2 km/h (0 Bft) S-SW 202 9,1 C 13,1 C 0,0 km/h (0 Bft)
19.04.2013 01:25 12,7 C 78 % 1022,0 hPa 0,0 l/m 0,2 km/h (0 Bft) W-SW 247 9,0 C 13,0 C 0,0 km/h (0 Bft)
19.04.2013 01:30 12,7 C 78 % 1022,0 hPa 0,0 l/m 0,6 km/h (0 Bft) S 180 9,0 C 13,0 C 0,0 km/h (0 Bft)
19.04.2013 01:35 12,7 C 78 % 1022,0 hPa 0,0 l/m 0,6 km/h (0 Bft) S-SW 202 9,0 C 12,9 C 0,0 km/h (0 Bft)
19.04.2013 01:40 12,6 C 78 % 1022,0 hPa 0,0 l/m 0,5 km/h (0 Bft) S-SO 157 8,9 C 12,8 C 2,1 km/h (1 Bft)
19.04.2013 01:45 12,6 C 78 % 1022,2 hPa 0,0 l/m 0,3 km/h (0 Bft) S-SW 202 8,9 C 12,8 C 0,0 km/h (0 Bft)
19.04.2013 01:50 12,6 C 78 % 1022,2 hPa 0,0 l/m 0,3 km/h (0 Bft) W-SW 247 8,9 C 12,8 C 0,0 km/h (0 Bft)
19.04.2013 01:55 12,6 C 78 % 1022,2 hPa 0,0 l/m 0,5 km/h (0 Bft) W 270 8,9 C 12,8 C 3,1 km/h (1 Bft)
19.04.2013 02:00 12,6 C 79 % 1022,2 hPa 0,0 l/m 1,0 km/h (0 Bft) W-SW 247 9,1 C 12,7 C 2,4 km/h (1 Bft)
19.04.2013 02:05 12,6 C 79 % 1022,3 hPa 0,0 l/m 1,8 km/h (1 Bft) W 270 9,1 C 12,7 C 2,4 km/h (1 Bft)
19.04.2013 02:10 12,5 C 79 % 1022,3 hPa 0,0 l/m 2,1 km/h (1 Bft) W-SW 247 9,0 C 12,7 C 2,3 km/h (1 Bft)
19.04.2013 02:15 12,5 C 79 % 1022,3 hPa 0,0 l/m 2,4 km/h (1 Bft) SW 225 9,0 C 12,7 C 4,8 km/h (1 Bft)
19.04.2013 02:20 12,4 C 79 % 1022,3 hPa 0,0 l/m 3,1 km/h (1 Bft) W 270 8,9 C 12,6 C 2,4 km/h (1 Bft)
19.04.2013 02:25 12,4 C 79 % 1022,2 hPa 0,0 l/m 3,1 km/h (1 Bft) W-NW 292 8,9 C 12,6 C 2,7 km/h (1 Bft)
19.04.2013 02:30 12,3 C 79 % 1022,2 hPa 0,0 l/m 2,9 km/h (1 Bft) W 270 8,8 C 12,5 C 7,9 km/h (2 Bft)
19.04.2013 02:35 12,2 C 79 % 1022,2 hPa 0,0 l/m 3,5 km/h (1 Bft) N-NO 22 8,7 C 12,4 C 3,2 km/h (1 Bft)
19.04.2013 02:40 12,0 C 79 % 1022,2 hPa 0,0 l/m 3,5 km/h (1 Bft) W-NW 292 8,5 C 12,3 C 2,1 km/h (1 Bft)
19.04.2013 02:45 12,0 C 79 % 1022,2 hPa 0,0 l/m 3,1 km/h (1 Bft) NW 315 8,5 C 12,2 C 3,9 km/h (1 Bft)
19.04.2013 02:50 11,9 C 79 % 1022,2 hPa 0,0 l/m 2,6 km/h (1 Bft) W-NW 292 8,4 C 12,0 C 3,7 km/h (1 Bft)
19.04.2013 02:55 11,8 C 79 % 1022,2 hPa 0,0 l/m 2,6 km/h (1 Bft) W-SW 247 8,3 C 12,0 C 4,8 km/h (1 Bft)
19.04.2013 03:00 11,7 C 80 % 1022,2 hPa 0,0 l/m 2,3 km/h (1 Bft) W-NW 292 8,4 C 11,7 C 4,2 km/h (1 Bft)
19.04.2013 03:05 11,5 C 80 % 1022,5 hPa 0,0 l/m 2,4 km/h (1 Bft) W-NW 292 8,2 C 11,5 C 1,9 km/h (1 Bft)
19.04.2013 03:10 11,3 C 81 % 1022,5 hPa 0,0 l/m 2,3 km/h (1 Bft) W-NW 292 8,2 C 11,0 C 2,6 km/h (1 Bft)
19.04.2013 03:15 11,1 C 82 % 1022,5 hPa 0,0 l/m 1,8 km/h (1 Bft) W 270 8,1 C 10,8 C 4,0 km/h (1 Bft)
19.04.2013 03:20 10,9 C 84 % 1022,5 hPa 0,0 l/m 2,1 km/h (1 Bft) N 360 8,3 C 10,6 C 3,7 km/h (1 Bft)
19.04.2013 03:25 10,7 C 85 % 1022,5 hPa 0,0 l/m 2,1 km/h (1 Bft) W-NW 292 8,3 C 10,5 C 2,4 km/h (1 Bft)
19.04.2013 03:30 10,4 C 88 % 1022,5 hPa 0,0 l/m 2,3 km/h (1 Bft) W-NW 292 8,5 C 10,4 C 3,2 km/h (1 Bft)
19.04.2013 03:35 10,3 C 89 % 1022,5 hPa 0,0 l/m 2,3 km/h (1 Bft) W-SW 247 8,6 C 10,3 C 2,6 km/h (1 Bft)
19.04.2013 03:40 10,2 C 89 % 1022,5 hPa 0,0 l/m 2,6 km/h (1 Bft) W 270 8,5 C 10,2 C 6,3 km/h (2 Bft)
19.04.2013 03:45 9,9 C 90 % 1022,2 hPa 0,0 l/m 2,3 km/h (1 Bft) W 270 8,3 C 10,0 C 0,0 km/h (0 Bft)
19.04.2013 03:50 9,8 C 90 % 1022,2 hPa 0,0 l/m 3,2 km/h (1 Bft) W-SW 247 8,2 C 9,8 C 5,3 km/h (1 Bft)
19.04.2013 03:55 9,7 C 90 % 1022,2 hPa 0,0 l/m 3,2 km/h (1 Bft) W 270 8,1 C 9,7 C 4,3 km/h (1 Bft)
19.04.2013 04:00 9,7 C 91 % 1022,2 hPa 0,0 l/m 3,2 km/h (1 Bft) W-SW 247 8,3 C 9,5 C 3,7 km/h (1 Bft)
19.04.2013 04:05 9,6 C 91 % 1022,4 hPa 0,7 l/m 3,2 km/h (1 Bft) W-NW 292 8,2 C 9,5 C 2,4 km/h (1 Bft)
19.04.2013 04:10 9,5 C 91 % 1022,4 hPa 0,0 l/m 3,2 km/h (1 Bft) W 270 8,1 C 9,5 C 2,6 km/h (1 Bft)
19.04.2013 04:15 9,5 C 92 % 1022,4 hPa 0,0 l/m 2,9 km/h (1 Bft) W-SW 247 8,3 C 9,5 C 2,7 km/h (1 Bft)
19.04.2013 04:20 9,3 C 92 % 1022,4 hPa 0,0 l/m 3,5 km/h (1 Bft) W-NW 292 8,1 C 9,3 C 6,0 km/h (2 Bft)
19.04.2013 04:25 9,1 C 92 % 1022,4 hPa 0,0 l/m 4,0 km/h (1 Bft) W-NW 292 7,9 C 9,3 C 9,3 km/h (2 Bft)
19.04.2013 04:30 9,0 C 92 % 1022,4 hPa 0,0 l/m 3,7 km/h (1 Bft) W-NW 292 7,8 C 9,0 C 3,4 km/h (1 Bft)
19.04.2013 04:35 8,6 C 92 % 1022,4 hPa 0,0 l/m 3,5 km/h (1 Bft) O 90 7,4 C 8,9 C 2,4 km/h (1 Bft)
19.04.2013 04:40 8,5 C 92 % 1022,4 hPa 0,0 l/m 2,6 km/h (1 Bft) W-NW 292 7,3 C 8,6 C 0,0 km/h (0 Bft)
19.04.2013 04:45 8,4 C 93 % 1022,2 hPa 0,0 l/m 2,3 km/h (1 Bft) W 270 7,3 C 8,5 C 4,2 km/h (1 Bft)
19.04.2013 04:50 8,1 C 93 % 1022,2 hPa 0,0 l/m 2,7 km/h (1 Bft) W-NW 292 7,0 C 8,3 C 2,6 km/h (1 Bft)
19.04.2013 04:55 8,1 C 93 % 1022,2 hPa 0,0 l/m 2,7 km/h (1 Bft) W 270 7,0 C 8,2 C 2,7 km/h (1 Bft)
19.04.2013 05:00 8,1 C 93 % 1022,2 hPa 0,0 l/m 1,8 km/h (1 Bft) W-NW 292 7,0 C 8,1 C 3,2 km/h (1 Bft)
19.04.2013 05:05 8,0 C 93 % 1022,2 hPa 0,0 l/m 1,9 km/h (1 Bft) W-SW 247 6,9 C 8,0 C 1,6 km/h (1 Bft)
19.04.2013 05:10 7,9 C 93 % 1022,2 hPa 0,0 l/m 2,9 km/h (1 Bft) W-NW 292 6,8 C 8,0 C 5,3 km/h (1 Bft)
19.04.2013 05:15 7,8 C 93 % 1022,2 hPa 0,0 l/m 3,5 km/h (1 Bft) W-SW 247 6,7 C 7,8 C 6,0 km/h (2 Bft)
19.04.2013 05:20 7,7 C 93 % 1022,2 hPa 0,0 l/m 3,5 km/h (1 Bft) SW 225 6,6 C 7,7 C 3,2 km/h (1 Bft)
19.04.2013 05:25 7,7 C 94 % 1022,3 hPa 0,0 l/m 3,9 km/h (1 Bft) S 180 6,8 C 7,6 C 7,1 km/h (2 Bft)
19.04.2013 05:30 7,4 C 93 % 1022,3 hPa 0,7 l/m 5,3 km/h (1 Bft) W 270 6,3 C 6,8 C 11,9 km/h (2 Bft)
19.04.2013 05:35 7,3 C 94 % 1022,3 hPa 0,0 l/m 5,1 km/h (1 Bft) W-SW 247 6,4 C 6,7 C 4,5 km/h (1 Bft)
19.04.2013 05:40 7,2 C 94 % 1022,3 hPa 0,0 l/m 2,9 km/h (1 Bft) S 180 6,3 C 7,1 C 3,4 km/h (1 Bft)
19.04.2013 05:45 7,0 C 94 % 1022,4 hPa 0,0 l/m 2,6 km/h (1 Bft) S 180 6,1 C 7,0 C 5,1 km/h (1 Bft)
19.04.2013 05:50 7,0 C 94 % 1022,4 hPa 0,0 l/m 2,9 km/h (1 Bft) S-SW 202 6,1 C 6,9 C 4,0 km/h (1 Bft)
19.04.2013 05:55 6,9 C 94 % 1022,4 hPa 0,0 l/m 3,7 km/h (1 Bft) W-SW 247 6,0 C 6,6 C 6,0 km/h (2 Bft)
19.04.2013 06:00 6,9 C 94 % 1022,4 hPa 0,0 l/m 2,9 km/h (1 Bft) W-SW 247 6,0 C 6,8 C 2,6 km/h (1 Bft)
19.04.2013 06:05 6,9 C 94 % 1022,7 hPa 0,0 l/m 2,4 km/h (1 Bft) S 180 6,0 C 6,8 C 2,3 km/h (1 Bft)
19.04.2013 06:10 6,8 C 94 % 1022,7 hPa 0,0 l/m 1,6 km/h (1 Bft) S 180 5,9 C 6,8 C 3,9 km/h (1 Bft)
19.04.2013 06:15 6,6 C 94 % 1022,7 hPa 0,0 l/m 2,6 km/h (1 Bft) S-SW 202 5,7 C 6,7 C 4,3 km/h (1 Bft)
19.04.2013 06:20 6,5 C 94 % 1022,7 hPa 0,0 l/m 3,9 km/h (1 Bft) W-SW 247 5,6 C 6,1 C 5,5 km/h (1 Bft)
19.04.2013 06:25 6,5 C 94 % 1022,8 hPa 0,0 l/m 3,2 km/h (1 Bft) S-SO 157 5,6 C 6,4 C 1,8 km/h (1 Bft)
19.04.2013 06:30 6,6 C 94 % 1022,8 hPa 0,0 l/m 3,5 km/h (1 Bft) S-SO 157 5,7 C 6,3 C 12,4 km/h (3 Bft)
19.04.2013 06:35 6,3 C 94 % 1022,8 hPa 0,0 l/m 4,8 km/h (1 Bft) S-SW 202 5,4 C 5,7 C 6,1 km/h (2 Bft)
19.04.2013 06:40 6,1 C 94 % 1022,8 hPa 0,0 l/m 7,1 km/h (2 Bft) S-SO 157 5,2 C 4,1 C 9,8 km/h (2 Bft)
19.04.2013 06:45 6,0 C 94 % 1023,0 hPa 0,0 l/m 6,6 km/h (2 Bft) S-SO 157 5,1 C 4,6 C 8,2 km/h (2 Bft)
19.04.2013 06:50 6,0 C 94 % 1023,0 hPa 0,0 l/m 6,1 km/h (2 Bft) S 180 5,1 C 4,7 C 5,8 km/h (2 Bft)
19.04.2013 06:55 6,0 C 94 % 1023,0 hPa 0,0 l/m 5,8 km/h (2 Bft) S 180 5,1 C 4,8 C 4,8 km/h (1 Bft)
19.04.2013 07:00 6,0 C 94 % 1023,0 hPa 0,0 l/m 3,7 km/h (1 Bft) O 90 5,1 C 5,7 C 0,0 km/h (0 Bft)
19.04.2013 07:05 6,0 C 94 % 1023,3 hPa 0,0 l/m 2,6 km/h (1 Bft) SO 135 5,1 C 5,9 C 0,0 km/h (0 Bft)
19.04.2013 07:10 5,9 C 95 % 1023,3 hPa 0,0 l/m 1,9 km/h (1 Bft) SO 135 5,2 C 5,9 C 5,3 km/h (1 Bft)
19.04.2013 07:15 5,9 C 95 % 1023,3 hPa 0,0 l/m 1,8 km/h (1 Bft) SO 135 5,2 C 5,9 C 2,9 km/h (1 Bft)
19.04.2013 07:20 6,0 C 94 % 1023,3 hPa 0,0 l/m 2,6 km/h (1 Bft) S-SW 202 5,1 C 5,9 C 0,0 km/h (0 Bft)
19.04.2013 07:25 6,0 C 94 % 1024,1 hPa 0,0 l/m 2,4 km/h (1 Bft) S-SO 157 5,1 C 5,9 C 2,3 km/h (1 Bft)
19.04.2013 07:30 6,1 C 94 % 1024,1 hPa 0,0 l/m 1,9 km/h (1 Bft) S-SW 202 5,2 C 5,9 C 3,4 km/h (1 Bft)
19.04.2013 07:35 6,1 C 94 % 1024,1 hPa 0,0 l/m 2,1 km/h (1 Bft) O 90 5,2 C 5,9 C 0,0 km/h (0 Bft)
19.04.2013 07:40 6,0 C 95 % 1024,1 hPa 0,0 l/m 0,8 km/h (0 Bft) S 180 5,3 C 5,9 C 0,0 km/h (0 Bft)
19.04.2013 07:45 6,0 C 95 % 1024,1 hPa 0,0 l/m 0,2 km/h (0 Bft) O 90 5,3 C 6,0 C 0,0 km/h (0 Bft)
19.04.2013 07:50 6,1 C 95 % 1024,1 hPa 0,0 l/m 0,0 km/h (0 Bft) O-SO 112 5,4 C 6,0 C 0,0 km/h (0 Bft)
19.04.2013 07:55 6,1 C 95 % 1024,1 hPa 0,0 l/m 0,0 km/h (0 Bft) S-SO 157 5,4 C 6,1 C 0,0 km/h (0 Bft)
19.04.2013 08:00 6,2 C 95 % 1024,1 hPa 0,0 l/m 0,0 km/h (0 Bft) W-NW 292 5,5 C 6,1 C 0,0 km/h (0 Bft)
19.04.2013 08:05 6,2 C 95 % 1024,2 hPa 0,0 l/m 0,0 km/h (0 Bft) W 270 5,5 C 6,1 C 0,0 km/h (0 Bft)
19.04.2013 08:10 6,3 C 95 % 1024,2 hPa 0,0 l/m 0,0 km/h (0 Bft) O 90 5,6 C 6,2 C 0,0 km/h (0 Bft)
19.04.2013 08:15 6,3 C 95 % 1024,2 hPa 0,0 l/m 0,0 km/h (0 Bft) O-SO 112 5,6 C 6,2 C 0,0 km/h (0 Bft)
19.04.2013 08:20 6,3 C 95 % 1024,2 hPa 0,0 l/m 0,0 km/h (0 Bft) S-SO 157 5,6 C 6,3 C 0,0 km/h (0 Bft)
19.04.2013 08:25 6,4 C 95 % 1024,2 hPa 0,7 l/m 0,0 km/h (0 Bft) W-SW 247 5,7 C 6,3 C 0,0 km/h (0 Bft)
19.04.2013 08:30 6,5 C 95 % 1024,2 hPa 0,0 l/m 0,0 km/h (0 Bft) W-SW 247 5,8 C 6,4 C 0,0 km/h (0 Bft)
19.04.2013 08:35 6,4 C 95 % 1024,2 hPa 0,0 l/m 0,2 km/h (0 Bft) W-SW 247 5,7 C 6,4 C 2,4 km/h (1 Bft)
19.04.2013 08:40 6,5 C 95 % 1024,2 hPa 0,0 l/m 0,6 km/h (0 Bft) W-SW 247 5,8 C 6,4 C 0,0 km/h (0 Bft)
19.04.2013 08:45 6,5 C 95 % 1024,2 hPa 0,0 l/m 1,0 km/h (0 Bft) W 270 5,8 C 6,4 C 0,0 km/h (0 Bft)
19.04.2013 08:50 6,4 C 95 % 1024,2 hPa 0,0 l/m 0,5 km/h (0 Bft) W-SW 247 5,7 C 6,4 C 2,7 km/h (1 Bft)
19.04.2013 08:55 6,4 C 95 % 1024,2 hPa 0,0 l/m 1,0 km/h (0 Bft) W-SW 247 5,7 C 6,3 C 0,0 km/h (0 Bft)
19.04.2013 09:00 6,4 C 95 % 1024,2 hPa 0,0 l/m 1,3 km/h (1 Bft) W 270 5,7 C 6,3 C 0,0 km/h (0 Bft)
19.04.2013 09:05 6,4 C 95 % 1024,4 hPa 0,0 l/m 1,3 km/h (1 Bft) W-SW 247 5,7 C 6,3 C 2,4 km/h (1 Bft)
19.04.2013 09:10 6,4 C 95 % 1024,4 hPa 0,0 l/m 1,4 km/h (1 Bft) SW 225 5,7 C 6,3 C 0,0 km/h (0 Bft)
19.04.2013 09:15 6,4 C 95 % 1024,4 hPa 0,0 l/m 1,1 km/h (1 Bft) S 180 5,7 C 6,3 C 0,0 km/h (0 Bft)
19.04.2013 09:20 6,5 C 95 % 1024,4 hPa 0,0 l/m 0,8 km/h (0 Bft) S-SW 202 5,8 C 6,3 C 0,0 km/h (0 Bft)
19.04.2013 09:25 6,4 C 95 % 1024,4 hPa 0,0 l/m 1,3 km/h (1 Bft) S 180 5,7 C 6,3 C 2,7 km/h (1 Bft)
19.04.2013 09:30 6,3 C 95 % 1024,4 hPa 0,0 l/m 2,4 km/h (1 Bft) W-SW 247 5,6 C 6,3 C 5,0 km/h (1 Bft)
19.04.2013 09:35 6,3 C 95 % 1024,4 hPa 0,0 l/m 2,6 km/h (1 Bft) S-SW 202 5,6 C 6,3 C 2,1 km/h (1 Bft)
19.04.2013 09:40 6,5 C 95 % 1024,4 hPa 0,0 l/m 1,8 km/h (1 Bft) S 180 5,8 C 6,4 C 2,7 km/h (1 Bft)
19.04.2013 09:45 6,7 C 95 % 1024,3 hPa 0,0 l/m 1,3 km/h (1 Bft) S 180 6,0 C 6,5 C 0,0 km/h (0 Bft)
19.04.2013 09:50 7,1 C 95 % 1024,3 hPa 0,0 l/m 1,0 km/h (0 Bft) O-SO 112 6,4 C 6,8 C 0,0 km/h (0 Bft)
19.04.2013 09:55 7,2 C 95 % 1024,3 hPa 0,0 l/m 0,8 km/h (0 Bft) S 180 6,5 C 7,0 C 3,2 km/h (1 Bft)
19.04.2013 10:00 7,5 C 95 % 1024,3 hPa 0,0 l/m 1,1 km/h (1 Bft) W 270 6,8 C 7,6 C 1,9 km/h (1 Bft)
19.04.2013 10:05 7,5 C 95 % 1024,2 hPa 0,0 l/m 1,1 km/h (1 Bft) S 180 6,8 C 8,0 C 0,0 km/h (0 Bft)
19.04.2013 10:10 7,5 C 95 % 1024,2 hPa 0,0 l/m 0,5 km/h (0 Bft) S-SW 202 6,8 C 8,3 C 0,0 km/h (0 Bft)
19.04.2013 10:15 7,5 C 95 % 1024,2 hPa 0,0 l/m 0,6 km/h (0 Bft) SW 225 6,8 C 8,3 C 1,8 km/h (1 Bft)
19.04.2013 10:20 7,5 C 95 % 1024,2 hPa 0,0 l/m 1,0 km/h (0 Bft) S 180 6,8 C 8,4 C 2,1 km/h (1 Bft)
19.04.2013 10:25 7,4 C 95 % 1024,3 hPa 0,0 l/m 1,3 km/h (1 Bft) S 180 6,7 C 8,4 C 4,3 km/h (1 Bft)
19.04.2013 10:30 7,1 C 94 % 1024,3 hPa 0,0 l/m 2,4 km/h (1 Bft) S 180 6,2 C 8,2 C 2,3 km/h (1 Bft)
19.04.2013 10:35 6,9 C 94 % 1024,3 hPa 0,0 l/m 3,1 km/h (1 Bft) W-SW 247 6,0 C 8,0 C 4,5 km/h (1 Bft)
19.04.2013 10:40 6,7 C 94 % 1024,3 hPa 0,0 l/m 3,5 km/h (1 Bft) S 180 5,8 C 7,6 C 3,9 km/h (1 Bft)
19.04.2013 10:45 6,7 C 94 % 1024,4 hPa 0,0 l/m 3,7 km/h (1 Bft) S 180 5,8 C 7,3 C 4,0 km/h (1 Bft)
19.04.2013 10:50 6,8 C 94 % 1024,4 hPa 0,0 l/m 3,4 km/h (1 Bft) W-SW 247 5,9 C 7,3 C 5,6 km/h (1 Bft)
19.04.2013 10:55 6,9 C 94 % 1024,4 hPa 0,0 l/m 3,4 km/h (1 Bft) W-SW 247 6,0 C 7,3 C 5,3 km/h (1 Bft)
19.04.2013 11:00 6,7 C 93 % 1024,4 hPa 0,0 l/m 3,9 km/h (1 Bft) W-SW 247 5,6 C 7,1 C 6,8 km/h (2 Bft)
19.04.2013 11:05 6,6 C 93 % 1024,2 hPa 0,0 l/m 4,5 km/h (1 Bft) S-SW 202 5,6 C 6,5 C 4,3 km/h (1 Bft)
19.04.2013 11:10 6,6 C 93 % 1024,2 hPa 0,0 l/m 4,3 km/h (1 Bft) S 180 5,6 C 6,3 C 5,0 km/h (1 Bft)
19.04.2013 11:15 6,5 C 93 % 1024,2 hPa 0,0 l/m 3,7 km/h (1 Bft) W-SW 247 5,5 C 6,6 C 2,9 km/h (1 Bft)
19.04.2013 11:20 6,5 C 93 % 1024,2 hPa 0,0 l/m 3,5 km/h (1 Bft) S-SW 202 5,5 C 6,7 C 3,1 km/h (1 Bft)
19.04.2013 11:25 6,5 C 93 % 1024,3 hPa 0,0 l/m 3,2 km/h (1 Bft) W-SW 247 5,5 C 6,6 C 2,7 km/h (1 Bft)
19.04.2013 11:30 6,6 C 93 % 1024,3 hPa 0,0 l/m 3,2 km/h (1 Bft) W-SW 247 5,6 C 6,6 C 2,4 km/h (1 Bft)
19.04.2013 11:35 6,7 C 93 % 1024,3 hPa 0,0 l/m 3,2 km/h (1 Bft) SW 225 5,6 C 6,6 C 4,3 km/h (1 Bft)
19.04.2013 11:40 6,6 C 93 % 1024,3 hPa 0,0 l/m 2,9 km/h (1 Bft) S 180 5,6 C 6,6 C 5,5 km/h (1 Bft)
19.04.2013 11:45 6,5 C 93 % 1024,3 hPa 0,0 l/m 3,1 km/h (1 Bft) W-SW 247 5,5 C 6,6 C 3,2 km/h (1 Bft)
19.04.2013 11:50 6,4 C 93 % 1024,3 hPa 0,0 l/m 2,9 km/h (1 Bft) W-SW 247 5,4 C 6,5 C 1,6 km/h (1 Bft)
19.04.2013 11:55 6,4 C 93 % 1024,3 hPa 0,0 l/m 2,7 km/h (1 Bft) SO 135 5,4 C 6,4 C 2,4 km/h (1 Bft)
19.04.2013 12:00 6,5 C 93 % 1024,3 hPa 0,0 l/m 2,3 km/h (1 Bft) W-SW 247 5,5 C 6,5 C 4,5 km/h (1 Bft)
19.04.2013 12:05 6,5 C 93 % 1024,2 hPa 0,0 l/m 2,1 km/h (1 Bft) S-SW 202 5,5 C 6,5 C 1,8 km/h (1 Bft)
19.04.2013 12:10 6,8 C 93 % 1024,2 hPa 0,0 l/m 2,6 km/h (1 Bft) S 180 5,7 C 6,6 C 3,1 km/h (1 Bft)
19.04.2013 12:15 6,7 C 93 % 1024,2 hPa 0,0 l/m 2,3 km/h (1 Bft) S-SW 202 5,6 C 6,6 C 2,4 km/h (1 Bft)
19.04.2013 12:20 6,8 C 93 % 1024,2 hPa 0,0 l/m 1,4 km/h (1 Bft) S 180 5,7 C 6,7 C 3,7 km/h (1 Bft)
19.04.2013 12:25 6,8 C 93 % 1024,1 hPa 0,0 l/m 1,4 km/h (1 Bft) S 180 5,7 C 6,8 C 3,9 km/h (1 Bft)
19.04.2013 12:30 6,7 C 93 % 1024,1 hPa 0,0 l/m 2,6 km/h (1 Bft) W-SW 247 5,6 C 6,7 C 4,3 km/h (1 Bft)
19.04.2013 12:35 6,5 C 93 % 1024,1 hPa 0,0 l/m 3,2 km/h (1 Bft) S-SW 202 5,5 C 6,5 C 6,0 km/h (2 Bft)
19.04.2013 12:40 6,4 C 93 % 1024,1 hPa 0,0 l/m 3,5 km/h (1 Bft) S-SW 202 5,4 C 6,3 C 3,1 km/h (1 Bft)
19.04.2013 12:45 6,4 C 93 % 1024,1 hPa 0,7 l/m 2,9 km/h (1 Bft) S-SW 202 5,4 C 6,4 C 3,9 km/h (1 Bft)
19.04.2013 12:50 6,5 C 93 % 1024,1 hPa 0,0 l/m 2,9 km/h (1 Bft) W 270 5,5 C 6,4 C 4,8 km/h (1 Bft)
19.04.2013 12:55 6,6 C 93 % 1024,1 hPa 0,0 l/m 3,2 km/h (1 Bft) W 270 5,6 C 6,4 C 2,7 km/h (1 Bft)
19.04.2013 13:00 6,8 C 94 % 1024,1 hPa 0,0 l/m 2,9 km/h (1 Bft) W 270 5,9 C 6,6 C 3,4 km/h (1 Bft)
19.04.2013 13:05 6,8 C 94 % 1023,9 hPa 0,0 l/m 2,7 km/h (1 Bft) W-SW 247 5,9 C 6,7 C 4,7 km/h (1 Bft)
19.04.2013 13:10 6,9 C 94 % 1023,9 hPa 0,0 l/m 2,6 km/h (1 Bft) S-SW 202 6,0 C 6,8 C 3,1 km/h (1 Bft)
19.04.2013 13:15 6,9 C 94 % 1023,9 hPa 0,0 l/m 3,1 km/h (1 Bft) SW 225 6,0 C 6,7 C 4,8 km/h (1 Bft)
19.04.2013 13:20 7,0 C 93 % 1023,9 hPa 0,0 l/m 3,2 km/h (1 Bft) NW 315 5,9 C 6,8 C 3,4 km/h (1 Bft)
19.04.2013 13:25 7,0 C 93 % 1023,7 hPa 0,0 l/m 3,2 km/h (1 Bft) W 270 5,9 C 6,8 C 3,9 km/h (1 Bft)
19.04.2013 13:30 7,0 C 93 % 1023,7 hPa 0,0 l/m 2,9 km/h (1 Bft) W 270 5,9 C 6,8 C 3,7 km/h (1 Bft)
19.04.2013 13:35 6,9 C 93 % 1023,7 hPa 0,0 l/m 2,9 km/h (1 Bft) W-NW 292 5,8 C 6,9 C 4,5 km/h (1 Bft)
19.04.2013 13:40 7,0 C 93 % 1023,7 hPa 0,0 l/m 2,9 km/h (1 Bft) W 270 5,9 C 6,9 C 2,6 km/h (1 Bft)
19.04.2013 13:45 7,0 C 93 % 1023,8 hPa 0,0 l/m 3,1 km/h (1 Bft) W-SW 247 5,9 C 6,9 C 3,4 km/h (1 Bft)
19.04.2013 13:50 6,9 C 93 % 1023,8 hPa 0,0 l/m 2,4 km/h (1 Bft) S 180 5,8 C 6,9 C 3,2 km/h (1 Bft)
19.04.2013 13:55 6,9 C 93 % 1023,8 hPa 0,0 l/m 1,8 km/h (1 Bft) SW 225 5,8 C 6,8 C 0,0 km/h (0 Bft)
19.04.2013 14:00 7,0 C 93 % 1023,8 hPa 0,0 l/m 1,1 km/h (1 Bft) S-SW 202 5,9 C 7,0 C 0,0 km/h (0 Bft)
19.04.2013 14:05 7,1 C 93 % 1023,6 hPa 0,0 l/m 0,8 km/h (0 Bft) SO 135 6,0 C 7,0 C 1,9 km/h (1 Bft)
19.04.2013 14:10 7,3 C 93 % 1023,6 hPa 0,0 l/m 1,0 km/h (0 Bft) S-SO 157 6,2 C 7,1 C 2,7 km/h (1 Bft)
19.04.2013 14:15 7,2 C 93 % 1023,6 hPa 0,0 l/m 1,4 km/h (1 Bft) SO 135 6,1 C 7,1 C 2,4 km/h (1 Bft)
19.04.2013 14:20 7,1 C 93 % 1023,6 hPa 0,0 l/m 1,1 km/h (1 Bft) O-SO 112 6,0 C 7,4 C 0,0 km/h (0 Bft)
19.04.2013 14:25 7,1 C 93 % 1023,4 hPa 0,0 l/m 1,0 km/h (0 Bft) O-SO 112 6,0 C 7,6 C 1,9 km/h (1 Bft)
19.04.2013 14:30 6,7 C 93 % 1023,4 hPa 0,0 l/m 1,8 km/h (1 Bft) SO 135 5,6 C 7,8 C 3,9 km/h (1 Bft)
19.04.2013 14:35 6,8 C 93 % 1023,4 hPa 0,0 l/m 1,4 km/h (1 Bft) SO 135 5,7 C 7,9 C 0,0 km/h (0 Bft)
19.04.2013 14:40 7,0 C 93 % 1023,4 hPa 0,0 l/m 1,1 km/h (1 Bft) W 270 5,9 C 8,1 C 2,4 km/h (1 Bft)
19.04.2013 14:45 7,1 C 92 % 1023,4 hPa 0,0 l/m 1,0 km/h (0 Bft) S 180 5,9 C 8,3 C 0,0 km/h (0 Bft)
19.04.2013 14:50 7,3 C 92 % 1023,4 hPa 0,0 l/m 1,9 km/h (1 Bft) S-SW 202 6,1 C 8,3 C 4,0 km/h (1 Bft)
19.04.2013 14:55 7,4 C 92 % 1023,4 hPa 0,0 l/m 2,7 km/h (1 Bft) S 180 6,2 C 8,4 C 2,7 km/h (1 Bft)
19.04.2013 15:00 7,5 C 92 % 1023,4 hPa 0,0 l/m 4,0 km/h (1 Bft) W-SW 247 6,3 C 8,2 C 6,4 km/h (2 Bft)
19.04.2013 15:05 7,6 C 92 % 1023,4 hPa 0,0 l/m 4,3 km/h (1 Bft) W 270 6,4 C 8,0 C 6,1 km/h (2 Bft)
19.04.2013 15:10 7,5 C 91 % 1023,4 hPa 0,0 l/m 5,0 km/h (1 Bft) W-SW 247 6,1 C 7,6 C 7,7 km/h (2 Bft)
19.04.2013 15:15 7,6 C 91 % 1023,4 hPa 0,0 l/m 4,8 km/h (1 Bft) S 180 6,2 C 7,6 C 6,1 km/h (2 Bft)
19.04.2013 15:20 7,6 C 91 % 1023,4 hPa 0,0 l/m 4,3 km/h (1 Bft) S-SW 202 6,2 C 7,7 C 5,0 km/h (1 Bft)
19.04.2013 15:25 7,6 C 90 % 1023,3 hPa 0,0 l/m 4,3 km/h (1 Bft) S 180 6,1 C 7,8 C 5,0 km/h (1 Bft)
19.04.2013 15:30 7,6 C 90 % 1023,3 hPa 0,0 l/m 4,5 km/h (1 Bft) S 180 6,1 C 7,8 C 8,0 km/h (2 Bft)
19.04.2013 15:35 7,4 C 90 % 1023,3 hPa 0,0 l/m 5,3 km/h (1 Bft) S 180 5,9 C 7,2 C 9,8 km/h (2 Bft)
19.04.2013 15:40 7,3 C 89 % 1023,3 hPa 0,0 l/m 5,6 km/h (1 Bft) S 180 5,6 C 6,9 C 7,1 km/h (2 Bft)
19.04.2013 15:45 7,2 C 89 % 1023,4 hPa 0,0 l/m 5,5 km/h (1 Bft) S-SW 202 5,5 C 7,0 C 8,2 km/h (2 Bft)
19.04.2013 15:50 7,2 C 88 % 1023,4 hPa 0,0 l/m 5,0 km/h (1 Bft) S 180 5,3 C 6,9 C 3,5 km/h (1 Bft)
19.04.2013 15:55 7,2 C 88 % 1023,4 hPa 0,0 l/m 5,1 km/h (1 Bft) W-SW 247 5,3 C 6,7 C 7,9 km/h (2 Bft)
19.04.2013 16:00 7,0 C 88 % 1023,4 hPa 0,0 l/m 5,5 km/h (1 Bft) W-SW 247 5,2 C 6,2 C 5,6 km/h (1 Bft)
19.04.2013 16:05 7,0 C 89 % 1023,4 hPa 0,0 l/m 4,8 km/h (1 Bft) W-SW 247 5,3 C 6,4 C 5,3 km/h (1 Bft)
19.04.2013 16:10 6,9 C 89 % 1023,4 hPa 0,0 l/m 4,5 km/h (1 Bft) W 270 5,2 C 6,4 C 5,0 km/h (1 Bft)
19.04.2013 16:15 6,9 C 89 % 1023,4 hPa 0,0 l/m 4,7 km/h (1 Bft) W-SW 247 5,2 C 6,3 C 4,5 km/h (1 Bft)
19.04.2013 16:20 6,9 C 90 % 1023,4 hPa 0,0 l/m 4,5 km/h (1 Bft) S 180 5,4 C 6,3 C 7,9 km/h (2 Bft)
19.04.2013 16:25 6,7 C 89 % 1023,4 hPa 0,0 l/m 5,1 km/h (1 Bft) S-SO 157 5,0 C 6,0 C 6,4 km/h (2 Bft)
19.04.2013 16:30 6,5 C 89 % 1023,4 hPa 0,0 l/m 6,4 km/h (2 Bft) W-SW 247 4,8 C 5,2 C 9,0 km/h (2 Bft)
19.04.2013 16:35 6,3 C 89 % 1023,4 hPa 0,0 l/m 6,8 km/h (2 Bft) SW 225 4,6 C 4,6 C 11,4 km/h (2 Bft)
19.04.2013 16:40 6,3 C 89 % 1023,4 hPa 0,0 l/m 6,9 km/h (2 Bft) S-SW 202 4,6 C 4,2 C 4,3 km/h (1 Bft)
19.04.2013 16:45 6,1 C 89 % 1023,5 hPa 0,0 l/m 6,4 km/h (2 Bft) SW 225 4,4 C 4,7 C 6,9 km/h (2 Bft)
19.04.2013 16:50 6,0 C 89 % 1023,5 hPa 0,0 l/m 4,8 km/h (1 Bft) S 180 4,3 C 5,0 C 8,7 km/h (2 Bft)
19.04.2013 16:55 5,9 C 90 % 1023,5 hPa 0,0 l/m 5,1 km/h (1 Bft) SW 225 4,4 C 4,9 C 6,9 km/h (2 Bft)
19.04.2013 17:00 5,9 C 91 % 1023,5 hPa 0,0 l/m 4,7 km/h (1 Bft) S-SW 202 4,5 C 5,1 C 3,7 km/h (1 Bft)
19.04.2013 17:05 5,9 C 91 % 1023,6 hPa 0,0 l/m 3,9 km/h (1 Bft) W-SW 247 4,5 C 5,4 C 3,9 km/h (1 Bft)
19.04.2013 17:10 5,8 C 91 % 1023,6 hPa 0,0 l/m 3,9 km/h (1 Bft) W-SW 247 4,4 C 5,4 C 6,6 km/h (2 Bft)
19.04.2013 17:15 5,7 C 91 % 1023,6 hPa 0,0 l/m 4,2 km/h (1 Bft) W 270 4,3 C 5,1 C 3,1 km/h (1 Bft)
19.04.2013 17:20 5,6 C 92 % 1023,6 hPa 0,0 l/m 4,3 km/h (1 Bft) W-SW 247 4,4 C 4,9 C 4,0 km/h (1 Bft)
19.04.2013 17:25 5,6 C 92 % 1023,4 hPa 0,0 l/m 4,3 km/h (1 Bft) W-NW 292 4,4 C 4,9 C 3,9 km/h (1 Bft)
19.04.2013 17:30 5,6 C 92 % 1023,4 hPa 0,0 l/m 3,4 km/h (1 Bft) S 180 4,4 C 5,2 C 2,3 km/h (1 Bft)
19.04.2013 17:35 5,6 C 92 % 1023,4 hPa 0,0 l/m 2,9 km/h (1 Bft) S-SO 157 4,4 C 5,4 C 9,3 km/h (2 Bft)
19.04.2013 17:40 5,5 C 93 % 1023,4 hPa 0,0 l/m 3,7 km/h (1 Bft) S-SO 157 4,5 C 4,9 C 4,8 km/h (1 Bft)
19.04.2013 17:45 5,5 C 93 % 1023,9 hPa 0,0 l/m 4,2 km/h (1 Bft) S 180 4,5 C 4,7 C 2,6 km/h (1 Bft)
19.04.2013 17:50 5,6 C 93 % 1023,9 hPa 0,0 l/m 3,1 km/h (1 Bft) S-SW 202 4,6 C 5,2 C 4,8 km/h (1 Bft)
19.04.2013 17:55 5,6 C 93 % 1023,9 hPa 0,0 l/m 2,9 km/h (1 Bft) S 180 4,6 C 5,2 C 3,1 km/h (1 Bft)
19.04.2013 18:00 5,5 C 93 % 1023,9 hPa 0,7 l/m 2,6 km/h (1 Bft) S 180 4,5 C 5,2 C 0,0 km/h (0 Bft)
19.04.2013 18:05 5,5 C 93 % 1023,8 hPa 0,0 l/m 1,9 km/h (1 Bft) S 180 4,5 C 5,2 C 3,2 km/h (1 Bft)
19.04.2013 18:10 5,3 C 93 % 1023,8 hPa 0,0 l/m 2,3 km/h (1 Bft) S 180 4,3 C 5,1 C 4,7 km/h (1 Bft)
19.04.2013 18:15 5,3 C 93 % 1023,8 hPa 0,0 l/m 3,2 km/h (1 Bft) S 180 4,3 C 4,9 C 2,6 km/h (1 Bft)
19.04.2013 18:20 5,2 C 94 % 1023,8 hPa 0,0 l/m 3,4 km/h (1 Bft) S-SW 202 4,3 C 4,6 C 3,7 km/h (1 Bft)
19.04.2013 18:25 5,1 C 94 % 1023,8 hPa 0,0 l/m 2,9 km/h (1 Bft) S 180 4,2 C 4,8 C 2,4 km/h (1 Bft)
19.04.2013 18:30 5,1 C 94 % 1023,8 hPa 0,0 l/m 2,9 km/h (1 Bft) S-SO 157 4,2 C 4,7 C 3,1 km/h (1 Bft)
19.04.2013 18:35 5,0 C 94 % 1023,8 hPa 0,0 l/m 2,9 km/h (1 Bft) O-SO 112 4,1 C 4,6 C 0,0 km/h (0 Bft)
19.04.2013 18:40 5,0 C 94 % 1023,8 hPa 0,0 l/m 2,9 km/h (1 Bft) S 180 4,1 C 4,6 C 2,9 km/h (1 Bft)
19.04.2013 18:45 5,0 C 94 % 1023,7 hPa 0,0 l/m 2,7 km/h (1 Bft) S 180 4,1 C 4,5 C 4,3 km/h (1 Bft)
19.04.2013 18:50 5,0 C 94 % 1023,7 hPa 0,0 l/m 3,4 km/h (1 Bft) S 180 4,1 C 4,4 C 4,5 km/h (1 Bft)
19.04.2013 18:55 4,9 C 94 % 1023,7 hPa 0,0 l/m 4,0 km/h (1 Bft) W-SW 247 4,0 C 4,1 C 8,7 km/h (2 Bft)
19.04.2013 19:00 4,9 C 94 % 1023,7 hPa 0,0 l/m 4,5 km/h (1 Bft) SW 225 4,0 C 3,7 C 5,6 km/h (1 Bft)
19.04.2013 19:05 4,8 C 94 % 1023,6 hPa 0,0 l/m 4,8 km/h (1 Bft) SW 225 3,9 C 3,6 C 5,0 km/h (1 Bft)
19.04.2013 19:10 4,7 C 94 % 1023,6 hPa 0,7 l/m 4,3 km/h (1 Bft) W-SW 247 3,8 C 3,7 C 4,5 km/h (1 Bft)
19.04.2013 19:15 4,7 C 94 % 1023,6 hPa 0,0 l/m 4,0 km/h (1 Bft) W-SW 247 3,8 C 3,8 C 5,8 km/h (2 Bft)
19.04.2013 19:20 4,6 C 94 % 1023,6 hPa 0,0 l/m 4,0 km/h (1 Bft) S-SW 202 3,7 C 3,7 C 5,6 km/h (1 Bft)
19.04.2013 19:25 4,5 C 94 % 1023,6 hPa 0,0 l/m 3,5 km/h (1 Bft) S 180 3,6 C 3,9 C 4,8 km/h (1 Bft)
19.04.2013 19:30 4,6 C 95 % 1023,6 hPa 0,0 l/m 2,7 km/h (1 Bft) S-SO 157 3,9 C 4,2 C 3,2 km/h (1 Bft)
19.04.2013 19:35 4,5 C 95 % 1023,6 hPa 0,0 l/m 2,3 km/h (1 Bft) SO 135 3,8 C 4,2 C 2,4 km/h (1 Bft)
19.04.2013 19:40 4,6 C 95 % 1023,6 hPa 0,0 l/m 1,3 km/h (1 Bft) SW 225 3,9 C 4,2 C 1,8 km/h (1 Bft)
19.04.2013 19:45 4,6 C 95 % 1023,2 hPa 0,0 l/m 1,3 km/h (1 Bft) S 180 3,9 C 4,2 C 1,8 km/h (1 Bft)
19.04.2013 19:50 4,5 C 95 % 1023,2 hPa 0,0 l/m 1,1 km/h (1 Bft) S-SW 202 3,8 C 4,2 C 2,6 km/h (1 Bft)
19.04.2013 19:55 4,5 C 95 % 1023,2 hPa 0,0 l/m 1,6 km/h (1 Bft) SW 225 3,8 C 4,2 C 2,1 km/h (1 Bft)
19.04.2013 20:00 4,4 C 95 % 1023,2 hPa 0,0 l/m 1,9 km/h (1 Bft) SW 225 3,7 C 4,1 C 0,0 km/h (0 Bft)
19.04.2013 20:05 4,4 C 95 % 1023,2 hPa 0,0 l/m 1,4 km/h (1 Bft) S-SO 157 3,7 C 4,1 C 0,0 km/h (0 Bft)
19.04.2013 20:10 4,4 C 95 % 1023,2 hPa 0,0 l/m 1,3 km/h (1 Bft) S-SO 157 3,7 C 4,1 C 3,9 km/h (1 Bft)
19.04.2013 20:15 4,3 C 95 % 1023,2 hPa 0,0 l/m 2,3 km/h (1 Bft) S-SO 157 3,6 C 4,0 C 1,8 km/h (1 Bft)
19.04.2013 20:20 4,2 C 95 % 1023,2 hPa 0,7 l/m 2,4 km/h (1 Bft) S 180 3,5 C 3,9 C 0,0 km/h (0 Bft)
19.04.2013 20:25 4,2 C 95 % 1023,2 hPa 0,0 l/m 1,9 km/h (1 Bft) S-SO 157 3,5 C 3,8 C 3,2 km/h (1 Bft)
19.04.2013 20:30 4,1 C 95 % 1023,2 hPa 0,0 l/m 1,4 km/h (1 Bft) S-SO 157 3,4 C 3,8 C 3,2 km/h (1 Bft)
19.04.2013 20:35 4,2 C 95 % 1023,2 hPa 0,0 l/m 1,6 km/h (1 Bft) S-SO 157 3,5 C 3,8 C 2,7 km/h (1 Bft)
19.04.2013 20:40 4,1 C 95 % 1023,2 hPa 0,0 l/m 1,9 km/h (1 Bft) S-SO 157 3,4 C 3,8 C 3,1 km/h (1 Bft)
19.04.2013 20:45 4,1 C 95 % 1023,2 hPa 0,0 l/m 1,8 km/h (1 Bft) O-SO 112 3,4 C 3,7 C 1,6 km/h (1 Bft)
19.04.2013 20:50 4,0 C 96 % 1023,2 hPa 0,0 l/m 1,8 km/h (1 Bft) SO 135 3,4 C 3,7 C 3,1 km/h (1 Bft)
19.04.2013 20:55 4,0 C 95 % 1023,2 hPa 0,0 l/m 1,8 km/h (1 Bft) O-SO 112 3,3 C 3,7 C 3,2 km/h (1 Bft)
19.04.2013 21:00 4,0 C 96 % 1023,2 hPa 0,0 l/m 2,4 km/h (1 Bft) SO 135 3,4 C 3,6 C 3,7 km/h (1 Bft)
19.04.2013 21:05 4,0 C 96 % 1023,5 hPa 0,0 l/m 2,1 km/h (1 Bft) S 180 3,4 C 3,6 C 0,0 km/h (0 Bft)
19.04.2013 21:10 4,0 C 96 % 1023,5 hPa 0,7 l/m 0,6 km/h (0 Bft) W-NW 292 3,4 C 3,6 C 0,0 km/h (0 Bft)
19.04.2013 21:15 4,0 C 96 % 1023,5 hPa 0,0 l/m 0,8 km/h (0 Bft) W-SW 247 3,4 C 3,6 C 4,7 km/h (1 Bft)
19.04.2013 21:20 4,0 C 96 % 1023,5 hPa 0,0 l/m 1,6 km/h (1 Bft) W-NW 292 3,4 C 3,7 C 3,5 km/h (1 Bft)
19.04.2013 21:25 4,0 C 96 % 1023,4 hPa 0,0 l/m 2,1 km/h (1 Bft) W-NW 292 3,4 C 3,7 C 5,0 km/h (1 Bft)
19.04.2013 21:30 3,8 C 96 % 1023,4 hPa 0,0 l/m 2,4 km/h (1 Bft) W-NW 292 3,2 C 3,6 C 5,3 km/h (1 Bft)
19.04.2013 21:35 3,7 C 96 % 1023,4 hPa 0,0 l/m 3,1 km/h (1 Bft) W-NW 292 3,1 C 3,3 C 5,5 km/h (1 Bft)
19.04.2013 21:40 3,6 C 96 % 1023,4 hPa 0,0 l/m 4,3 km/h (1 Bft) W-SW 247 3,0 C 2,6 C 3,4 km/h (1 Bft)
19.04.2013 21:45 3,6 C 96 % 1023,4 hPa 0,0 l/m 3,2 km/h (1 Bft) N-NW 337 3,0 C 3,1 C 0,0 km/h (0 Bft)
19.04.2013 21:50 3,6 C 96 % 1023,4 hPa 0,0 l/m 1,3 km/h (1 Bft) N 360 3,0 C 3,4 C 0,0 km/h (0 Bft)
19.04.2013 21:55 3,5 C 96 % 1023,4 hPa 0,7 l/m 0,8 km/h (0 Bft) W 270 2,9 C 3,4 C 1,8 km/h (1 Bft)
19.04.2013 22:00 3,6 C 96 % 1023,4 hPa 0,0 l/m 0,2 km/h (0 Bft) NW 315 3,0 C 3,4 C 1,8 km/h (1 Bft)
19.04.2013 22:05 3,6 C 96 % 1023,4 hPa 0,0 l/m 0,3 km/h (0 Bft) S-SO 157 3,0 C 3,4 C 0,0 km/h (0 Bft)
19.04.2013 22:10 3,6 C 96 % 1023,4 hPa 0,0 l/m 0,3 km/h (0 Bft) S 180 3,0 C 3,4 C 0,0 km/h (0 Bft)
19.04.2013 22:15 3,6 C 96 % 1023,4 hPa 0,0 l/m 1,4 km/h (1 Bft) W-SW 247 3,0 C 3,4 C 5,5 km/h (1 Bft)
19.04.2013 22:20 3,5 C 96 % 1023,4 hPa 0,7 l/m 3,7 km/h (1 Bft) W-SW 247 2,9 C 2,9 C 5,1 km/h (1 Bft)
19.04.2013 22:25 3,5 C 96 % 1023,2 hPa 0,0 l/m 3,5 km/h (1 Bft) W-NW 292 2,9 C 2,8 C 1,9 km/h (1 Bft)
19.04.2013 22:30 3,5 C 96 % 1023,2 hPa 0,7 l/m 2,4 km/h (1 Bft) W-NW 292 2,9 C 3,3 C 5,3 km/h (1 Bft)
19.04.2013 22:35 3,4 C 96 % 1023,2 hPa 0,0 l/m 1,8 km/h (1 Bft) S-SW 202 2,8 C 3,2 C 0,0 km/h (0 Bft)
19.04.2013 22:40 3,3 C 96 % 1023,2 hPa 0,7 l/m 1,6 km/h (1 Bft) S-SW 202 2,7 C 3,2 C 4,3 km/h (1 Bft)
19.04.2013 22:45 3,1 C 96 % 1023,2 hPa 0,0 l/m 1,6 km/h (1 Bft) W-NW 292 2,5 C 3,1 C 5,5 km/h (1 Bft)
19.04.2013 22:50 3,1 C 96 % 1023,2 hPa 0,0 l/m 1,8 km/h (1 Bft) S-SW 202 2,5 C 2,9 C 0,0 km/h (0 Bft)
19.04.2013 22:55 3,1 C 96 % 1023,2 hPa 0,7 l/m 1,3 km/h (1 Bft) N-NW 337 2,5 C 2,8 C 3,1 km/h (1 Bft)
19.04.2013 23:00 3,0 C 96 % 1023,2 hPa 0,0 l/m 1,0 km/h (0 Bft) N-NO 22 2,4 C 2,7 C 0,0 km/h (0 Bft)
19.04.2013 23:05 2,9 C 97 % 1023,4 hPa 0,0 l/m 0,6 km/h (0 Bft) W-NW 292 2,5 C 2,7 C 0,0 km/h (0 Bft)
19.04.2013 23:10 2,8 C 97 % 1023,4 hPa 0,7 l/m 0,3 km/h (0 Bft) NW 315 2,4 C 2,6 C 0,0 km/h (0 Bft)
19.04.2013 23:15 2,7 C 97 % 1023,4 hPa 0,0 l/m 0,8 km/h (0 Bft) N-NO 22 2,3 C 2,5 C 3,2 km/h (1 Bft)
19.04.2013 23:20 2,6 C 97 % 1023,4 hPa 0,0 l/m 1,9 km/h (1 Bft) S 180 2,2 C 2,4 C 0,0 km/h (0 Bft)
19.04.2013 23:25 2,6 C 97 % 1023,5 hPa 0,7 l/m 2,6 km/h (1 Bft) W-SW 247 2,2 C 2,3 C 3,5 km/h (1 Bft)
19.04.2013 23:30 2,3 C 97 % 1023,5 hPa 0,0 l/m 3,2 km/h (1 Bft) S-SW 202 1,9 C 1,7 C 4,8 km/h (1 Bft)
19.04.2013 23:35 2,2 C 97 % 1023,5 hPa 0,0 l/m 3,5 km/h (1 Bft) S 180 1,8 C 1,4 C 3,1 km/h (1 Bft)
19.04.2013 23:40 2,1 C 97 % 1023,5 hPa 0,7 l/m 2,9 km/h (1 Bft) S 180 1,7 C 1,6 C 4,7 km/h (1 Bft)
19.04.2013 23:45 1,9 C 97 % 1023,8 hPa 0,0 l/m 3,7 km/h (1 Bft) S-SO 157 1,5 C 1,0 C 5,3 km/h (1 Bft)
19.04.2013 23:50 1,7 C 97 % 1023,8 hPa 0,0 l/m 3,9 km/h (1 Bft) S 180 1,3 C 0,6 C 4,7 km/h (1 Bft)
19.04.2013 23:55 1,6 C 97 % 1023,8 hPa 0,7 l/m 3,2 km/h (1 Bft) S 180 1,2 C 0,7 C 3,9 km/h (1 Bft)
_ Min-Zeit 23:55 01:10 00:00 - 08:30 - - 23:55 23:50 23:20
Minimum _ 1,6 C 77 % 1021,9 hPa - 0,0 km/h (0 Bft) - - 1,2 C 0,6 C 0,0 km/h (0 Bft)
_ Max-Zeit 00:05 23:55 11:00 23:55 06:40 - - 00:05 00:20 06:30
Maximum _ 13,9 C 97 % 1024,4 hPa 0,7 l/m 7,1 km/h
S-SO (2 Bft)
- - 10,3 C 13,9 C 12,4 km/h
S-SO (3 Bft)
Durchschnitt _ 7,0 C 91 % 1023,3 hPa #11,7 l/m 2,6 km/h (1 Bft) S - 5,7 C 6,9 C 3,3 km/h (1 Bft)